Location: Bonn
(50.7330°N, 7.1000°E)
Time: 01:33:03
(UTC+02:00)

Daily predictions for brighter satellites

Satellite Brightness Start Highest point End
(mag) Time Altitude Azimuth Time Altitude Azimuth Time Altitude Azimuth
DELTA 2 DEB (DPAF) 4.2 00:05:56 61° SW 00:06:16 64° WSW 00:10:44 10° NNW
Cosmos 2278 Rocket 2.1 00:01:58 10° NNW 00:07:41 90° NE 00:08:46 60° SSE
Cosmos 1606 3.4 00:07:56 48° W 00:08:00 48° WNW 00:11:42 10° N
Cosmos 2237 Rocket 2.9 00:09:28 37° E 00:09:28 37° E 00:14:17 10° NE
Cosmos 1378 Rocket 4.2 00:10:04 43° ENE 00:10:04 43° ENE 00:13:44 10° NNE
Cosmos 1553 Rocket 3.9 00:09:29 46° SSW 00:11:32 86° W 00:17:48 10° N
Cosmos 2150 Rocket 4.3 00:06:10 10° NNW 00:11:34 61° ENE 00:12:33 52° ESE
Cosmos 1782 4.0 00:12:24 34° W 00:13:07 37° WNW 00:16:53 10° N
Meteor 1-27 Rocket 3.6 00:12:18 57° S 00:13:32 88° E 00:19:10 10° NNE
Meteor 1-5 Rocket 4.1 00:10:33 10° N 00:16:07 79° ENE 00:17:05 62° SE
Cosmos 1937 Rocket 3.6 00:12:53 10° NNW 00:18:09 65° ENE 00:18:51 58° ESE
Cosmos 1844 Rocket 3.6 00:14:44 10° NW 00:19:46 35° WSW 00:20:44 33° SW
Cosmos 858 Rocket 4.3 00:21:29 10° NNW 00:26:47 86° ENE 00:27:13 75° SE
Meteor 1-11 Rocket 4.2 00:24:08 10° NNW 00:29:26 49° W 00:30:32 42° SW
Cosmos 1633 4.4 00:26:56 10° NNW 00:29:37 25° W 00:29:37 25° W
CZ-2C R/B 3.4 00:26:17 10° NNE 00:31:21 39° E 00:31:21 39° E
Okean 1 Rocket 3.4 00:29:17 10° NNW 00:33:29 59° W 00:33:29 59° W
NOSS 0 Rocket 3.8 00:33:14 61° SSE 00:33:52 65° ESE 00:39:59 10° NE
Cosmos 1898 Rocket 3.4 00:29:34 10° NNW 00:34:45 73° WSW 00:35:00 72° SW
NOSS 3-1 (C) 3.3 00:34:19 62° SSE 00:34:58 66° SE 00:41:36 10° NE
Cosmos 990 Rocket 3.9 00:30:36 10° NNW 00:35:46 74° ENE 00:36:08 70° E
Cosmos 1346 Rocket 3.5 00:36:44 49° NW 00:36:44 49° NW 00:40:17 10° N
USA 229 DEB 3.9 00:30:47 10° SW 00:37:38 70° NW 00:44:41 10° NE
USA 229 3.9 00:30:53 10° SW 00:37:44 70° NW 00:44:46 10° NE
Cosmos 1975 4.1 00:35:22 10° N 00:38:27 33° NE 00:38:27 33° NE
S3M 4.3 00:37:35 40° SW 00:39:39 59° WNW 00:45:48 10° N
Cosmos 2219 Rocket 2.1 00:40:20 61° SW 00:41:22 83° WNW 00:47:03 10° NNE
Cosmos 1455 Rocket 3.9 00:37:21 10° N 00:41:23 42° ENE 00:41:23 42° ENE
CZ-4B R/B 3.8 00:42:41 19° NE 00:42:41 19° NE 00:44:29 10° NNE
Cosmos 883 Rocket 4.3 00:41:04 63° S 00:42:09 84° E 00:48:18 10° N
Cosmos 1500 4.5 00:40:07 10° N 00:43:00 36° NE 00:43:00 36° NE
Cosmos 1709 Rocket 4.0 00:38:04 10° N 00:44:29 87° W 00:45:46 61° S
Cosmos 1674 Rocket 4.2 00:45:22 46° W 00:45:28 46° WNW 00:49:41 10° N
Cosmos 1340 4.3 00:48:28 28° NE 00:48:28 28° NE 00:50:38 10° NNE
NOSS 3-1 (A) 3.4 00:48:24 62° SE 00:48:42 62° SE 00:55:18 10° NE
ALOS 2 2.7 00:49:25 73° N 00:49:25 73° N 00:53:25 10° NNW
ATLAS 2AS CENTAUR R/B 4.1 00:50:52 25° ESE 00:51:06 25° ESE 00:57:20 10° ENE
USA 267 3.8 00:45:30 10° E 00:51:52 57° NNE 00:58:15 10° WNW
Meteor 1-12 Rocket 4.3 00:50:07 10° N 00:55:58 69° ENE 00:56:49 60° ESE
Cosmos 2297 3.5 00:51:46 10° NNW 00:57:32 81° WSW 00:57:59 75° S
USA 81 3.9 00:59:38 80° SE 00:59:48 81° E 01:05:07 10° N
Cosmos 1763 Rocket 4.1 01:01:56 44° E 01:01:56 44° E 01:06:26 10° NE
COSMOS 2428 3.8 00:59:11 21° WSW 01:02:35 42° NW 01:08:00 10° NNE
Okean 3 4.2 01:05:33 47° NW 01:05:33 47° NW 01:09:13 10° N
Cosmos 1975 Rocket 3.3 01:06:41 68° N 01:06:41 68° N 01:10:38 10° N
Cosmos 2369 Rocket 3.7 01:01:46 10° NNW 01:06:44 31° NE 01:09:54 18° E
Cosmos 1814 Rocket 4.0 01:07:31 64° E 01:07:31 64° E 01:12:16 10° NNE
Terra 4.3 01:09:07 10° W 01:10:12 11° W 01:11:21 10° WNW
Cosmos 2074 Rocket 4.0 01:04:59 10° N 01:11:13 70° ENE 01:12:16 59° SE
Cosmos 2285 Rocket 4.0 01:11:12 62° SSE 01:11:56 67° ESE 01:18:17 10° NNE
Cosmos 1812 3.7 01:20:36 45° N 01:20:36 45° N 01:23:24 10° N
Cosmos 2360 Rocket 4.5 01:15:32 10° W 01:19:48 21° NW 01:24:05 10° NNE
Cosmos 468 Rocket 4.0 01:22:48 70° W 01:23:12 74° WNW 01:28:33 10° NNE
Cosmos 1980 3.9 01:23:07 52° WSW 01:24:15 65° WNW 01:29:55 10° NNE
Okean 1 4.2 01:26:01 47° NNE 01:26:01 47° NNE 01:28:59 10° NNE
ATLAS 3B R/B 2.7 01:20:02 10° NW 01:27:00 73° NE 01:29:36 40° ESE
Cosmos 1536 Rocket 4.2 01:27:44 48° ENE 01:27:44 48° ENE 01:31:20 10° NNE
SL-16 R/B 2.2 01:27:47 65° ESE 01:27:49 65° ESE 01:33:28 10° NE
ARGOS Delta rocket 4.0 01:24:16 10° NNE 01:28:07 61° NE 01:28:07 61° NE
CZ-4C R/B 3.4 01:22:23 10° NW 01:28:53 40° WSW 01:29:24 39° SW
Cosmos 1743 3.9 01:25:12 10° N 01:27:56 41° NNE 01:27:56 41° NNE
ATLAS CENTAUR R/B 3.1 01:35:32 25° ENE 01:35:32 25° ENE 01:37:32 10° NE
Cosmos 1943 Rocket 3.9 01:29:37 10° NNW 01:34:32 29° NE 01:39:12 11° ESE
Landsat 5 4.0 01:36:09 54° N 01:36:09 54° N 01:39:28 10° NNW
USA 238 DEB 4.0 01:31:20 10° NW 01:38:24 69° NE 01:42:35 27° ESE
USA 238 4.0 01:31:26 10° NW 01:38:30 68° NE 01:42:45 26° ESE
Cosmos 841 Rocket 3.4 01:41:58 76° E 01:41:58 76° E 01:47:00 10° NNE
CZ-2C R/B 3.8 01:42:25 37° W 01:42:25 37° W 01:46:31 10° NNW
Cosmos 1607 3.9 01:35:46 10° NW 01:42:08 87° NE 01:43:39 56° SE
Cosmos 1666 3.8 01:39:05 10° N 01:41:59 42° NNE 01:41:59 42° NNE
Cosmos 2333 Rocket 3.2 01:41:00 30° W 01:43:17 43° NW 01:48:48 10° NNE
Meteor 2-9 Rocket 4.5 01:38:24 10° N 01:43:41 54° ENE 01:44:24 50° ESE
Cosmos 540 Rocket 4.1 01:47:20 42° E 01:47:20 42° E 01:51:52 10° NE
Cosmos 1689 Rocket 4.5 01:52:32 24° NNW 01:52:32 24° NNW 01:54:00 10° NNW
Cosmos 2278 Rocket 4.0 01:47:26 10° WNW 01:50:37 17° W 01:50:37 17° W
Meteor 1-18 Rocket 4.4 01:50:39 56° WSW 01:51:30 62° WNW 01:57:21 10° N
Cosmos 2237 Rocket 3.0 01:51:15 35° W 01:53:04 46° NW 01:58:34 10° NNE
Meteor 1-13 Rocket 4.3 01:53:27 63° SE 01:54:06 69° E 02:00:01 10° NNE
Cosmos 405 Rocket 4.2 01:59:36 30° ENE 01:59:36 30° ENE 02:02:00 10° NNE
USA 215 3.6 01:53:03 10° ENE 01:59:17 45° SE 01:59:26 45° SE
Meteor 2-13 Rocket 4.4 01:54:48 10° NNW 02:00:50 63° W 02:01:30 59° SW
Meteor 2-4 Rocket 3.9 02:04:01 52° ESE 02:04:27 54° E 02:09:44 10° NNE
Meteor 1-19 Rocket 4.2 02:06:04 66° SSE 02:06:50 78° E 02:12:44 10° NNE
Cosmos 371 Rocket 3.5 02:07:54 61° WNW 02:08:04 62° WNW 02:12:56 10° NNE
CZ-2C R/B 3.6 02:06:39 10° N 02:11:40 40° WNW 02:12:53 35° W
Okean 1-7 Rocket 4.0 02:13:05 54° ENE 02:13:05 54° ENE 02:17:02 10° NNE
Cosmos 405 4.4 02:09:57 10° N 02:12:41 36° NE 02:12:41 36° NE
CZ-4B R/B 3.7 02:16:16 20° NW 02:16:16 20° NW 02:17:37 10° NNW
NOSS 2-3 (D) 4.2 02:14:42 58° ESE 02:14:42 58° ESE 02:20:14 10° NE
Cosmos 1025 Rocket 3.6 02:17:12 51° ENE 02:17:12 51° ENE 02:21:08 10° NNE
Okean 2 4.4 02:19:54 40° E 02:19:54 40° E 02:23:29 10° NNE
Nadezhda 1 Rocket 3.9 02:18:58 59° SW 02:20:06 74° WNW 02:26:23 10° N
SL-8 Rocket 4.3 02:14:41 10° N 02:20:47 59° ENE 02:22:55 39° SE
COSMOS 2455 4.3 02:16:17 10° NNW 02:21:51 37° NE 02:27:23 10° ESE
Cosmos 304 Rocket 3.8 02:24:19 70° ESE 02:24:19 70° ESE 02:29:04 10° NNE
Cosmos 1125 Rocket 4.2 02:20:39 10° NW 02:25:08 41° W 02:25:08 41° W
Cosmos 1943 4.0 02:25:29 35° SE 02:26:11 37° ESE 02:31:20 10° NE
Cosmos 2219 Rocket 4.2 02:22:00 10° W 02:26:13 22° NW 02:30:34 10° NNE
Cosmos 2263 4.4 02:21:49 10° NNW 02:27:38 72° ENE 02:29:43 41° SE
CENTAUR R/B 4.2 02:21:05 10° NW 02:27:58 41° NNE 02:35:34 10° E
Cosmos 2058 Rocket 3.7 02:23:59 10° N 02:28:14 46° ENE 02:28:40 44° E
H-2A R/B 2.8 02:26:45 10° N 02:29:54 56° N 02:29:54 56° N
USA 267 3.1 02:28:10 10° ESE 02:34:44 83° SSW 02:41:20 10° WNW
Cosmos 1437 Rocket 3.4 02:32:33 10° N 02:36:11 50° ENE 02:36:11 50° ENE
Cosmos 1295 Rocket 4.3 02:33:31 10° N 02:39:38 84° W 02:41:03 56° S
NOSS 3-1 (A) 4.5 02:35:47 19° W 02:39:58 44° NNW 02:46:40 10° NE
Cosmos 2341 Rocket 3.9 02:34:15 10° NNW 02:40:26 70° W 02:41:42 55° SSW
ATLAS 2AS CENTAUR R/B 3.0 02:38:16 45° SW 02:41:08 84° SE 02:49:21 10° NE
Cosmos 1603 3.6 02:44:31 62° SSW 02:45:34 89° WNW 02:51:22 10° NNE
SL-08 R/B 3.9 02:46:06 37° ESE 02:47:36 52° ENE 02:52:15 10° N
Cosmos 1892 Rocket 3.8 02:49:35 57° ESE 02:49:54 59° E 02:54:20 10° NNE
Cosmos 1441 Rocket 3.5 02:50:57 67° NE 02:50:57 67° NE 02:54:26 10° NNE
Cosmos 2369 Rocket 2.1 02:45:37 10° NW 02:51:10 62° WSW 02:51:40 59° SW
NOSS 3-2 (A) 3.9 02:44:47 10° NW 02:52:07 88° NE 03:00:10 10° SE
Iridium 2 4.4 02:49:28 10° N 02:53:14 48° E 02:53:22 48° E
Cosmos 44 3.5 02:51:23 10° NW 02:55:45 59° NE 02:57:57 27° ESE
Meteor 1-23 Rocket 4.1 02:54:40 58° SW 02:55:47 77° WNW 03:01:25 10° N
NOSS 2-3 (E) 4.1 02:57:31 54° WSW 02:58:41 75° NW 03:04:43 10° NE
Cosmos 1238 Rocket 3.9 02:59:21 43° W 02:59:59 46° WNW 03:05:27 10° N
Cosmos 1461 3.0 02:55:56 10° NW 03:00:01 71° NE 03:00:41 57° ESE
Gbstr 26 Del rocket 4.4 02:57:38 34° WSW 03:01:40 80° SSE 03:09:12 10° ENE
PSLV R/B 3.7 02:59:21 10° N 03:04:04 72° WNW 03:04:33 66° WSW
PSLV R/B 4.3 03:05:23 54° WNW 03:05:23 54° WNW 03:09:02 10° NNW
Meteor 1-15 Rocket 4.5 02:59:26 10° NNW 03:05:07 52° W 03:06:02 47° SW
SL-08 R/B 4.4 03:00:24 10° N 03:06:47 90° ESE 03:09:15 40° S
Cosmos 1959 Rocket 4.4 03:01:09 10° NNW 03:07:24 82° W 03:09:38 43° S
Resurs 1-4 Rocket 3.7 03:06:14 10° NE 03:10:39 26° E 03:13:42 16° SE
SL-16 R/B 3.6 03:09:37 21° W 03:12:23 30° NW 03:17:24 10° NNE
ATLAS CENTAUR R/B 2.6 03:11:48 30° WNW 03:12:44 34° NW 03:16:25 10° NNE
CZ-2D R/B 3.7 03:08:33 10° NE 03:13:04 27° E 03:16:12 16° SE
ATLAS 3B R/B 3.4 03:11:21 10° NW 03:16:49 31° WSW 03:16:49 31° WSW
Cosmos 773 Rocket 4.3 03:16:34 42° SSE 03:18:01 56° ESE 03:23:07 10° NNE
Cosmos 1809 Rocket 4.3 03:12:10 10° NNW 03:18:21 80° W 03:20:44 39° S
Cosmos 1943 Rocket 2.1 03:13:09 10° NNW 03:18:48 69° WSW 03:20:41 42° S
Cosmos 1606 Rocket 4.4 03:14:58 10° NNW 03:18:44 37° W 03:18:44 37° W
Cosmos 1766 4.3 03:19:11 10° N 03:23:04 45° ENE 03:24:44 28° SE
Cosmos 1066 Rocket 4.4 03:22:45 35° SSE 03:24:51 61° E 03:30:08 10° NNE
Cosmos 2228 3.1 03:24:29 10° NNW 03:28:48 55° W 03:29:03 54° WSW
USA 238 DEB 4.2 03:22:41 10° NW 03:29:02 37° WSW 03:29:57 36° SW
USA 238 4.2 03:22:47 10° NW 03:29:08 37° WSW 03:30:06 36° SW
Helios 1A Rocket 3.6 03:30:20 10° N 03:34:08 39° WNW 03:34:31 38° W
Cosmos 405 Rocket 4.4 03:34:48 20° WNW 03:34:48 20° WNW 03:37:34 10° NNW
Cosmos 292 Rocket 3.8 03:33:39 48° S 03:35:00 79° ESE 03:39:53 10° NNE
Cosmos 1515 4.0 03:36:48 49° W 03:36:52 49° WNW 03:40:36 10° N
Cosmos 44 Rocket 3.2 03:34:03 10° NW 03:38:40 53° WSW 03:39:10 50° SSW
AQUA 3.8 03:34:04 10° NNE 03:38:52 77° ESE 03:40:33 41° S
SL-16 R/B 2.5 03:34:11 18° SSE 03:39:00 84° ENE 03:45:13 10° NNW
Cosmos 1544 4.5 03:36:44 10° N 03:40:14 37° ENE 03:42:38 17° SE
Cosmos 1821 Rocket 4.4 03:35:46 10° N 03:41:48 59° ENE 03:47:49 10° SSE
ADEOS 4.4 03:37:11 10° NNE 03:42:12 45° E 03:45:21 21° SSE
USA 215 3.3 03:36:05 10° ENE 03:42:38 79° NNW 03:46:47 25° WSW
Cosmos 1953 4.0 03:41:21 10° N 03:44:58 32° ENE 03:48:35 10° SE
Cosmos 2218 Rocket 4.4 03:39:45 10° NNW 03:45:39 45° W 03:47:42 34° SW
Cosmos 2056 Rocket 4.4 03:40:34 10° NNW 03:45:50 50° ENE 03:50:58 10° SE
Aureole 1 Rocket 3.9 03:44:01 29° S 03:46:27 51° ESE 03:50:39 10° NE
IRS-1C 4.1 03:43:38 10° NNE 03:49:01 81° ESE 03:51:34 32° S
CBERS-1 3.9 03:44:33 10° NNE 03:49:42 81° WNW 03:51:46 37° SSW
Cosmos 2366 rocket 4.4 03:46:40 10° NNW 03:52:39 45° W 03:55:01 32° SW
Cosmos 1812 Rocket 3.4 03:48:17 10° NNW 03:52:42 81° W 03:54:29 36° S
Cosmos 1680 Rocket 3.9 03:52:53 28° S 03:55:33 60° ESE 04:00:45 10° NNE
IRS-1D 3.8 03:54:14 10° NNE 03:59:22 64° ESE 04:02:38 23° S
Cosmos 1758 4.2 03:55:44 10° N 03:59:46 50° ENE 04:03:36 11° SSE
NOSS 3-2 (C) 4.0 03:53:20 10° NW 04:00:31 56° WSW 04:08:20 10° SSE
Meteor 1-4 Rocket 2.6 04:01:10 10° NNW 04:04:58 66° W 04:06:03 42° SSW
Cosmos 1656 Rocket 3.5 04:00:29 10° NW 04:05:51 64° WSW 04:11:03 11° SSE
Cosmos 921 Rocket 3.9 04:01:48 10° NNW 04:06:11 52° ENE 04:10:35 10° SE
UNKNOWN OBJECT B 4.2 04:02:59 10° NNE 04:06:39 35° E 04:09:36 14° SSE
EXPRESS MD2 3.9 03:59:19 10° W 04:07:10 80° S 04:10:53 10° ESE
GEOS 3 Rocket 3.8 04:02:03 10° NE 04:07:20 67° SE 04:10:09 28° SSW
OPS 6432 4.5 04:07:15 47° SSE 04:07:45 54° SE 04:10:43 10° NE
COSMOS 2455 2.8 04:02:13 10° NW 04:08:11 63° WSW 04:14:05 10° SSE
Cosmos 1934 Rocket 4.2 04:01:54 10° N 04:08:11 72° E 04:14:30 10° SSE
Cosmos 1943 3.8 04:07:17 26° WSW 04:10:09 47° NW 04:15:37 10° NNE
ARIANE 5 R/B 2.6 04:09:51 10° NNE 04:15:08 80° ESE 04:18:39 22° S
USA 267 3.8 04:12:40 10° S 04:18:21 31° SW 04:24:04 10° WNW
CENTAUR R/B 3.1 04:11:54 10° NW 04:19:37 89° ENE 04:28:00 10° SE
ADEOS II 4.5 04:17:00 10° NE 04:20:47 20° E 04:24:33 10° SE
Cosmos 1371 Rocket 4.0 04:16:00 10° NNW 04:21:23 75° WSW 04:26:44 10° SSE
UNK 4.1 04:21:43 27° SSW 04:23:45 44° W 04:28:10 10° NNW
ADEOS Rocket 3.0 04:20:14 10° NNE 04:26:05 88° W 04:31:08 17° SSW
Cosmos 1626 Rocket 4.1 04:24:20 28° SW 04:26:06 43° WNW 04:30:19 10° N
USA 161 1.9 04:25:12 14° SSE 04:27:36 66° ENE 04:30:30 10° N
Cosmos 923 Rocket 4.2 04:24:56 26° SW 04:28:00 65° WNW 04:33:21 10° NNE
Lacrosse 5 rocket 3.8 04:27:59 10° SSE 04:30:58 17° SE 04:33:57 10° E
NOSS 3-4 (A) 3.5 04:26:51 23° SW 04:31:04 85° SE 04:37:43 10° NE
NOSS 3-4 (C) 3.5 04:26:57 23° SW 04:31:11 84° SE 04:37:49 10° NE
ATLAS 2AS CENTAUR R/B 3.9 04:25:40 11° W 04:33:00 44° NNW 04:40:44 10° NE
NPP 4.5 04:28:33 10° N 04:33:28 37° WNW 04:36:31 20° WSW
Cosmos 2369 Rocket 4.2 04:32:58 10° W 04:33:25 10° W 04:33:25 10° W
Okean O Rocket 3.9 04:30:48 10° NE 04:34:16 22° E 04:37:43 10° SE
CZ-2D R/B 3.9 04:31:43 10° NNE 04:35:50 60° ESE 04:39:21 13° S
Cosmos 1825 Rocket 3.6 04:32:39 18° S 04:35:56 87° ESE 04:40:23 10° N
Cosmos 44 4.2 04:33:12 10° WNW 04:36:17 22° WSW 04:36:17 22° WSW
Genesis I 3.8 04:33:56 10° NW 04:37:33 34° WSW 04:41:08 10° S
SL-27 R/B 3.0 04:38:03 18° S 04:40:28 57° ESE 04:44:02 10° NNE
RESURS DK-1 2.4 04:40:27 21° SSW 04:43:08 78° ESE 04:47:17 10° NNE
Nadezhda 3 Rocket 4.3 04:39:13 19° SW 04:43:39 53° WNW 04:49:52 10° N
COBE Rocket 4.0 04:39:59 10° N 04:45:07 71° WNW 04:49:07 16° SSW
Cosmos 1733 3.4 04:41:57 10° N 04:45:46 73° E 04:49:33 10° SSE
Cosmos 1805 3.7 04:42:40 10° NNW 04:46:25 42° W 04:48:57 18° SSW
Gbstr 26 Del rocket 4.5 04:41:21 10° W 04:49:27 83° N 04:56:28 10° E
Resurs 1-4 Rocket 2.4 04:45:40 10° N 04:50:48 54° WNW 04:54:47 16° SW
Cosmos 1271 Rocket 2.9 04:47:31 10° NNW 04:51:09 45° W 04:54:09 14° SSW
Cosmos 192 4.3 04:47:35 17° SSW 04:51:21 80° WNW 04:56:19 10° NNE
ATLAS CENTAUR R/B 3.9 04:50:52 10° NW 04:52:49 13° NNW 04:54:43 10° NNE
CZ-2D R/B 2.4 04:48:15 10° N 04:53:27 52° WNW 04:57:33 16° SW
Cosmos 2098 Rocket 2.1 04:52:23 10° N 04:55:38 85° E 04:58:33 10° S
Cosmos 1980 Rocket 4.3 04:51:12 10° NNW 04:56:14 31° NE 05:01:14 10° ESE
COSMOS 2406 3.2 04:51:32 16° SSW 04:56:19 85° WNW 05:02:07 10° NNE
Cosmos 1943 Rocket 3.9 04:59:17 10° WNW 05:01:29 12° W 05:02:09 12° WSW
Cosmos 2112 Rocket 4.4 04:59:30 16° SW 05:03:35 51° WNW 05:08:44 10° NNE
Cosmos 1842 4.0 05:01:20 18° SW 05:03:45 35° WNW 05:07:21 10° N
MOZ.5/SAFIR/RUBIN 5/SL-8 4.2 05:03:49 10° SSW 05:08:11 40° W 05:12:37 10° NNW
Meteor 1-16 Rocket 4.4 05:03:46 10° N 05:09:16 75° ENE 05:14:35 10° SSE
Cosmos 1727 Rocket 4.1 05:04:56 10° S 05:11:08 83° E 05:17:21 10° N
Cosmos 1656 4.1 05:05:48 10° NNW 05:11:15 66° ENE 05:16:38 10° SE
Cosmos 1153 Rocket 4.4 05:08:00 10° NNW 05:14:10 80° W 05:20:17 10° S
Tiangong 1 2.8 05:16:43 13° SSW 05:17:48 16° S 05:19:38 10° SE
DNEPR-1 R/B 3.5 05:15:59 10° NW 05:20:09 59° SW 05:24:25 10° SSE
Cosmos 1953 3.4 05:17:59 10° NNW 05:21:19 26° W 05:24:38 10° SW
Cosmos 1842 Rocket 3.8 05:16:57 10° N 05:21:21 76° E 05:25:45 10° SSE
SL-16 R/B 3.8 05:19:15 11° SW 05:23:24 20° W 05:27:49 10° NW
CZ-2C R/B 4.0 05:20:32 10° SSE 05:24:56 72° ENE 05:29:25 10° N
USA 215 3.9 05:19:02 10° ENE 05:25:20 53° N 05:31:39 10° W
Cosmos 2056 Rocket 4.4 05:23:09 10° NW 05:27:44 29° W 05:32:14 10° SSW
Cosmos 389 Rocket 3.0 05:24:43 10° NNW 05:28:11 41° W 05:31:36 10° SSW
Cosmos 1802 Rocket 4.4 05:22:09 10° N 05:28:37 72° ENE 05:35:01 10° SSE
Abrixas 2.7 05:26:17 12° WSW 05:28:43 47° S 05:31:27 10° E
Cosmos 1758 Rocket 4.1 05:24:36 10° SW 05:28:44 41° WNW 05:32:52 10° N
Cosmos 1470 3.4 05:27:57 10° NNW 05:31:31 35° W 05:35:04 10° SSW
Cosmos-2242 3.5 05:28:53 10° NNW 05:33:01 40° W 05:37:07 10° SSW
PSLV R/B 4.2 05:29:48 10° NNE 05:34:10 61° E 05:38:29 10° S
Cosmos 1707 2.7 05:30:56 10° SSW 05:34:48 70° W 05:38:42 10° N
MOS 1-B 4.4 05:30:38 10° NNE 05:36:26 69° WNW 05:42:11 10° SSW
Meteor 2-15 4.5 05:31:31 10° SSW 05:37:39 78° W 05:43:50 10° N
UNKNOWN OBJECT B 4.1 05:37:45 10° N 05:41:03 26° WNW 05:44:23 10° WSW
Cosmos 921 Rocket 4.4 05:40:46 10° NW 05:44:08 21° W 05:47:31 10° SW
NOSS 5 (C) 4.2 05:41:14 10° SW 05:44:31 73° NW 05:47:35 10° NE
Meteor 2-15 Rocket 4.5 05:39:00 10° SSW 05:45:10 81° W 05:51:21 10° N
MOS 1 Rocket 3.7 05:41:31 10° N 05:45:33 40° WNW 05:49:39 10° SW
Cosmos 1459 Rocket 4.0 05:40:04 10° NNW 05:46:12 78° W 05:52:24 10° S
